EHI
6 6 6 6 4 4 5 6 5 5 5 6 6 5 4 4 5 6 6 6 6 6 6 6 6 6 6 6 6 6 6 6 6 6 6 6 6 6 6 6 6 6 6
6 6 6 5 4 4 4 5 5 5 5 6 6 5 4 4 5 5 6 6 6 6 6 6 6 6 6 6 6 6 6 6 6 6 6 6 6 6 6 6 6 6 6
8 7 6 5 4 4 5 6 7 6 6 6 6 6 4 3 4 5 5 4 4 5 6 6 7 7 7 7 6 6 6 6 6 6 6 6 6 6 6 6 6 6 6
10 9 8 6 6 6 7 8 8 7 6 6 6 6 4 3 4 5 4 2 1 2 4 6 7 8 8 7 7 6 6 6 6 6 6 6 6 6 6 6 6 6 6
11 11 10 9 9 8 8 8 8 7 6 6 6 5 4 3 3 4 3 1 0 1 3 5 7 9 9 9 7 7 6 6 6 6 6 6 6 6 6 6 6 6 6
11 11 12 12 11 10 9 9 8 7 6 6 6 5 4 3 3 4 3 1 1 1 2 4 6 8 9 9 8 7 7 6 6 6 6 6 6 6 6 6 6 6 6
13 13 13 13 12 11 9 9 8 7 6 6 6 6 5 4 5 5 5 3 1 1 1 3 6 7 9 9 9 8 7 7 7 7 6 6 7 7 7 6 6 6 6
17 17 16 15 14 12 10 10 10 9 8 8 8 7 6 6 6 5 6 5 4 3 3 3 5 7 8 9 9 7 7 7 7 7 7 7 7 7 7 7 6 6 6
21 21 20 19 17 16 15 14 13 12 10 10 12 11 8 7 6 5 6 6 6 7 6 4 4 6 7 8 8 7 6 7 7 8 8 7 7 7 8 7 7 6 6
21 22 22 22 20 19 19 18 16 16 14 13 15 14 10 7 6 5 5 6 7 8 8 5 3 4 5 6 7 6 6 6 7 8 7 7 7 7 8 9 8 7 7
21 21 22 23 22 21 19 18 19 19 18 16 15 15 12 9 6 6 5 5 6 7 6 5 3 3 4 5 6 5 5 5 5 6 7 7 7 7 9 10 9 8 7
21 21 23 24 25 23 21 18 19 20 21 19 18 16 14 10 8 7 6 5 5 5 6 5 4 4 4 5 5 4 3 2 2 4 5 6 7 7 8 10 10 9 8
19 21 24 25 25 25 22 17 16 18 20 21 22 22 19 14 12 10 8 5 4 4 5 5 5 5 4 5 6 4 2 1 0 1 2 4 5 6 7 8 9 9 8
16 21 25 25 24 22 20 16 16 18 20 21 23 25 25 20 16 13 11 8 5 4 5 6 6 6 6 6 6 4 3 1 0 0 0 1 2 3 4 5 7 8 7
17 20 25 24 20 19 19 18 17 18 19 19 21 23 24 21 17 15 14 13 10 6 5 6 6 7 8 8 5 3 3 2 1 0 0 0 0 1 1 2 4 5 4
22 23 24 21 17 16 17 18 19 19 18 18 18 19 20 19 18 17 16 16 15 10 4 3 5 8 10 9 5 3 3 3 1 0 0 0 0 0 0 0 1 1 1
26 27 25 21 16 14 15 18 19 18 17 17 16 16 15 14 15 18 17 15 14 11 5 2 4 8 12 11 7 5 4 3 2 1 0 0 0 0 0 0 0 0 0
25 26 26 24 19 16 17 17 16 15 15 14 12 11 9 8 11 15 15 12 9 8 6 3 4 9 13 12 9 7 5 4 3 1 0 0 0 0 0 0 0 0 0
22 23 24 22 19 17 17 16 13 10 9 9 8 7 6 6 7 10 9 7 6 6 5 3 3 8 11 11 9 8 7 7 5 2 0 0 0 0 0 0 0 0 0
21 21 20 18 16 14 14 13 11 8 5 5 6 6 6 5 4 4 3 3 4 5 4 2 2 5 8 9 8 8 9 10 6 3 1 1 0 0 0 0 0 0 0
18 19 18 15 12 10 8 8 8 7 6 5 6 7 5 3 1 1 1 2 3 4 4 4 3 4 5 6 7 8 9 8 6 4 3 2 2 2 0 0 0 0 0
15 16 15 12 8 6 4 3 4 6 7 6 6 6 4 1 0 0 0 1 1 2 3 4 4 3 3 4 5 6 6 5 4 4 4 4 4 4 2 0 0 0 0
13 13 11 9 7 5 2 0 1 3 5 6 6 5 3 1 0 0 1 0 0 0 1 2 2 1 2 3 3 3 4 4 4 4 5 5 5 5 3 1 0 0 0
13 11 8 6 6 5 2 0 1 2 3 4 5 4 5 4 1 1 2 2 0 0 0 0 0 0 1 2 2 1 2 3 3 4 5 4 4 4 3 2 1 0 0
15 12 8 6 5 4 2 0 1 2 3 4 4 4 5 5 2 1 2 3 1 0 0 0 0 0 0 1 1 1 1 2 1 3 5 5 4 4 3 2 1 0 0
18 14 10 6 6 6 3 1 1 3 5 6 6 5 4 3 1 1 2 3 1 0 0 0 0 0 0 0 1 1 1 1 1 2 5 6 4 3 2 1 0 0 0
Wind_Speed
3 4 2 2 2 3 4 2 3 4 3 3 2 3 2 3 3 3 6 9 8 8 8 9 8 8 8 7 7 7 7 8 8 7 7 7 7 7 7 6 7 6 6
3 3 3 2 2 2 2 1 3 3 2 1 2 2 2 2 3 3 4 8 9 8 8 8 8 8 8 8 8 7 7 7 8 7 7 7 7 7 7 7 7 6 6
4 3 3 3 2 2 3 1 2 1 2 2 2 2 2 1 2 2 2 3 7 10 9 8 8 8 8 8 8 8 8 8 8 8 8 7 7 8 7 7 7 7 7
4 3 3 2 2 2 2 2 2 1 1 1 1 1 2 2 2 3 3 4 3 5 10 11 9 9 9 9 9 9 9 9 9 9 9 9 8 8 8 8 8 8 7
5 4 3 2 3 3 2 3 2 2 2 1 2 2 2 3 3 4 4 5 4 4 5 11 11 10 10 11 10 10 10 10 10 10 11 11 10 9 10 10 9 9 8
5 5 4 4 4 3 2 2 1 2 2 3 3 1 2 3 4 4 5 5 5 6 6 6 8 10 13 11 11 11 12 12 12 12 12 12 12 12 11 10 10 10 10
6 6 4 4 4 3 3 4 4 4 4 3 3 3 4 6 5 5 5 5 6 6 6 6 6 6 8 14 12 12 12 12 12 12 13 13 13 13 12 12 11 11 11
7 7 6 5 5 4 5 5 5 4 3 4 3 3 3 4 6 6 6 6 7 6 7 8 7 7 6 6 9 14 14 13 13 13 13 13 13 13 13 13 12 12 12
8 7 7 6 5 6 5 6 6 7 5 4 4 4 3 3 1 3 6 6 5 5 7 6 8 8 9 7 6 12 14 13 14 14 13 13 13 13 13 14 14 13 13
7 7 7 7 6 6 5 7 6 5 6 5 4 5 5 4 3 2 4 6 7 7 8 7 7 9 9 8 7 7 12 13 13 14 14 14 13 14 14 14 15 15 15
7 8 7 7 7 6 6 7 5 6 6 6 5 5 5 5 7 6 5 4 5 6 7 8 7 7 8 8 7 10 12 13 13 13 14 14 14 14 15 15 16 16 16
6 8 7 7 7 7 7 7 7 8 7 7 6 6 5 5 5 6 6 6 5 5 5 5 7 7 7 7 9 7 10 12 13 13 14 14 14 14 14 15 16 16 16
5 6 6 6 7 7 7 7 7 7 8 8 8 7 6 7 6 6 7 7 6 5 5 6 6 6 6 6 6 7 10 12 12 13 13 13 13 13 13 13 14 15 15
5 5 6 7 7 7 8 7 7 8 7 8 10 8 7 7 7 6 6 7 7 6 6 7 4 5 5 5 4 7 7 11 12 12 13 13 12 12 12 12 12 12 13
5 5 6 7 7 7 7 7 7 8 7 8 9 9 8 7 7 7 7 7 7 7 7 6 5 4 4 4 3 6 7 7 10 11 11 11 11 11 11 11 12 12 12
5 5 6 7 7 7 7 7 7 7 7 8 7 8 8 7 6 6 6 7 6 7 8 6 4 4 3 4 4 6 7 6 9 11 11 11 11 10 10 11 11 11 12
5 5 6 6 6 6 6 6 7 7 8 8 8 8 9 8 6 6 6 7 7 7 8 8 6 4 5 7 5 5 7 7 7 11 11 11 10 10 10 10 10 10 11
5 5 5 5 6 5 5 6 7 7 7 8 8 8 8 7 8 7 6 7 7 7 8 9 7 6 6 6 6 6 7 7 7 8 11 11 11 10 10 10 10 10 10
4 4 4 4 5 4 4 5 6 6 6 7 7 7 8 7 7 6 6 6 6 6 6 7 7 4 4 5 5 6 7 5 7 6 10 11 11 10 10 9 9 9 9
3 3 3 3 3 3 3 4 4 5 5 5 5 6 6 6 7 6 6 6 6 6 5 6 5 4 4 4 4 5 5 4 5 5 4 6 8 11 10 9 9 9 9
3 2 2 2 2 2 2 4 4 4 3 3 4 4 4 3 3 4 4 4 4 4 4 4 4 4 4 3 4 4 5 4 4 4 5 5 6 7 8 9 10 9 9
2 2 1 1 0 1 4 4 4 3 2 2 3 3 2 1 1 1 1 2 2 4 4 3 3 4 4 4 3 4 4 4 4 3 4 5 5 4 4 4 5 8 9
3 2 2 1 1 3 4 3 3 2 2 2 2 2 2 2 2 1 2 2 1 1 2 3 3 4 4 4 4 5 4 4 4 4 3 4 4 4 3 1 5 6 6
2 2 2 2 2 3 4 3 2 1 2 2 3 3 2 3 4 3 2 2 3 4 3 2 2 3 4 4 4 4 4 3 4 3 3 4 4 4 4 2 3 5 5
3 2 2 2 2 3 5 4 2 1 2 3 4 5 4 4 6 4 2 2 3 3 4 4 4 3 4 5 5 3 3 3 4 2 1 3 3 3 3 3 2 5 6
3 3 3 3 4 4 6 6 3 2 3 3 4 5 8 7 6 5 3 3 3 3 4 4 3 3 3 4 4 3 3 3 3 3 3 3 3 3 3 2 2 2 3
Wind_Direction
138 123 120 130 144 130 146 142 127 121 125 135 134 122 111 101 110 124 126 149 161 166 165 166 169 168 170 170 170 170 171 168 167 169 170 168 168 168 170 170 171 169 169
130 139 150 146 133 142 119 132 128 140 156 131 139 133 145 126 127 139 141 151 167 176 181 182 181 180 183 184 183 185 187 185 182 183 184 185 185 184 186 188 185 185 186
147 166 154 170 153 142 137 172 141 173 186 169 156 158 161 170 148 146 161 163 166 179 189 194 196 196 197 198 196 197 198 197 195 196 198 198 196 196 195 197 197 199 198
172 190 174 172 155 179 177 169 195 215 195 195 174 187 166 168 186 180 191 193 190 176 182 193 201 205 208 210 209 207 207 207 206 207 208 206 205 204 206 208 209 208 207
188 204 191 158 196 204 206 220 160 225 212 222 209 200 207 199 195 210 206 206 201 208 190 174 196 209 215 217 216 215 215 214 213 215 216 215 213 211 214 216 218 215 215
197 211 199 186 211 213 212 226 208 230 251 239 255 251 242 225 222 216 218 209 203 211 215 195 191 201 211 218 220 222 220 219 219 220 221 221 219 217 217 219 221 220 219
203 213 219 184 214 218 227 228 223 213 225 225 238 238 236 225 223 225 227 226 210 212 215 213 222 217 196 205 214 223 225 225 224 224 224 223 222 219 218 219 221 222 221
210 208 212 209 206 219 224 228 228 244 236 215 242 262 254 227 213 219 215 220 226 217 218 215 219 224 240 209 195 209 222 227 229 228 226 225 225 222 219 220 221 220 221
214 223 217 223 217 225 226 229 228 233 242 232 227 245 265 267 275 206 218 224 223 227 229 223 221 221 226 233 217 199 211 222 229 231 229 227 225 223 221 222 223 223 224
220 220 226 229 229 234 235 236 226 233 241 242 224 230 250 285 283 267 224 216 216 224 234 235 227 219 222 228 225 222 203 213 223 230 232 230 228 225 223 225 227 227 227
224 224 222 228 231 235 237 243 239 235 238 244 242 232 232 234 243 260 267 250 227 225 222 226 232 233 226 226 230 223 198 209 219 227 233 233 231 228 227 229 230 230 229
221 223 224 225 229 235 234 236 238 235 241 245 249 245 239 242 244 248 260 260 252 239 228 232 235 234 233 231 233 208 198 209 218 225 230 233 232 230 230 231 231 231 232
219 215 225 226 233 233 236 236 235 241 238 240 239 243 245 247 256 258 263 268 271 261 238 234 232 237 238 235 229 194 209 213 219 223 227 230 231 229 229 229 232 234 235
233 224 224 229 238 242 240 236 241 237 236 238 241 241 247 248 248 247 252 264 267 263 250 251 244 235 242 241 231 203 227 209 216 221 225 227 227 228 226 226 228 232 234
230 223 230 234 237 241 244 241 244 245 240 239 241 237 239 248 246 248 247 248 257 266 264 247 245 234 237 246 222 234 245 216 212 218 222 225 226 226 226 226 227 229 229
235 232 232 238 241 243 244 247 250 246 245 244 247 250 247 248 248 247 248 249 248 257 266 268 250 250 247 256 210 235 243 218 216 217 220 222 223 225 226 227 229 229 228
228 234 235 241 244 245 246 244 251 250 247 249 249 248 249 252 249 248 243 241 243 244 256 266 265 256 242 258 249 242 245 240 226 204 208 215 219 221 222 224 228 231 230
223 229 235 241 248 247 251 253 253 253 254 255 255 255 257 254 248 250 249 247 246 243 250 262 268 264 248 252 251 250 251 243 245 198 198 208 215 218 220 221 223 226 227
216 221 227 241 253 257 255 257 262 265 266 265 263 260 259 259 258 255 254 254 252 248 246 256 263 268 264 257 255 254 252 250 253 215 195 202 208 212 214 216 219 221 224
212 215 218 236 252 266 279 278 271 269 273 277 273 267 264 261 260 260 255 255 256 259 253 255 263 270 267 260 255 258 258 242 253 258 238 212 198 202 207 211 216 220 222
205 196 188 216 244 255 299 294 281 277 284 292 298 291 281 283 295 282 278 272 264 259 261 257 261 264 265 265 262 262 265 260 248 258 260 241 214 213 205 207 214 218 220
175 159 152 174 191 352 16 351 320 311 323 321 322 319 311 310 291 283 323 327 306 275 273 273 272 278 285 282 285 280 280 273 269 258 260 264 256 247 234 220 188 200 212
137 122 106 94 68 41 29 10 351 331 2 1 358 347 340 13 3 29 90 107 70 33 311 292 296 301 301 302 296 285 282 285 287 296 288 277 275 271 263 220 155 172 198
117 106 101 92 76 47 42 25 4 14 27 20 16 16 18 17 17 13 40 59 46 38 30 6 348 340 343 338 310 286 282 265 262 269 275 271 279 276 275 258 156 177 195
112 108 97 76 58 52 48 25 355 72 73 57 43 34 24 31 28 21 54 65 56 49 66 66 49 32 19 6 342 314 307 289 287 297 306 281 289 292 285 271 207 190 201
122 115 93 75 62 50 45 33 5 66 75 71 63 55 47 36 31 29 46 53 49 24 18 41 54 46 30 33 20 355 338 323 319 322 2 319 303 309 289 277 274 237 214